Regional Weather Roundup
Issued by NWS Albany, NY

Home | Current Version | Previous Version | Text Only | Print | Product List | Glossary On
Versions: 1 2 3 4 5 6 7 8 9 10 11 12 13 14 15 16 17 18 19 20 21 22 23 24 25 26 27 28 29 30 31 32 33 34 35 36 37 38 39 40 41 42 43 44 45 46 47 48 49 50
000
ASUS41 KALY 081710
RWRALY

NEW YORK STATE HOURLY WEATHER ROUNDUP
NATIONAL WEATHER SERVICE ALBANY NY
1200 PM EST MON FEB 08 2016

NOTE: "FAIR" INDICATES FEW OR NO CLOUDS BELOW 12,000 FEET WITH NO
SIGNIFICANT WEATHER AND/OR NO OBSTRUCTIONS TO VISIBILITY.

NYZ032-033-038>043-046>054-057>066-NYZ062>081-081800-
EAST


CITY           SKY/WX    TMP DP  RH WIND       PRES   REMARKS
ALBANY         CLOUDY    34  11  38 NE5       29.86F WCI  30
GLENS FALLS    CLOUDY    31   4  31 NE10      29.87F WCI  22
POUGHKEEPSIE   CLOUDY    34  11  38 E12       29.81F WCI  25
NEWBURGH       PTSUNNY   34  16  47 NE9       29.80F WCI  26
MONTGOMERY     CLOUDY    35  16  45 N12       29.78F WCI  27
WHITE PLAINS   SNOW      27  23  85 N15G23    29.76F VSB 1/2 WCI  15
ISLIP          LGT SNOW  28  23  81 N18G26    29.72F VSB 1   WCI  15
NEW YORK CITY  LGT SNOW  32  27  81 N17G23    29.78F VSB 1   WCI  21
CENTRAL PARK   LGT SNOW  31  25  78 N9G18     29.80F VSB 1   WCI  23
$$

NYZ005>009-017-018-044>046-055-056-081800-
CENTRAL


CITY           SKY/WX    TMP DP  RH WIND       PRES   REMARKS
FULTON         CLOUDY    39  24  55 SE7G18    29.75F WCI  34
SYRACUSE       CLOUDY    39  23  52 E13       29.75F WCI  31
ROME           CLOUDY    36  19  50 SE15      29.82F WCI  27
ELMIRA         CLOUDY    38  24  57 SE6       29.71F WCI  33
BINGHAMTON     MOSUNNY   35  22  58 SE13      29.70F WCI  26
MONTICELLO     MOSUNNY   34  14  44 E13G20    29.75F WCI  25
$$

NYZ026>034-041>043-081800-
NORTH


CITY           SKY/WX    TMP DP  RH WIND       PRES   REMARKS
WATERTOWN      MOSUNNY   33  22  63 NE14      29.79F WCI  23
FORT DRUM      NOT AVBL
MASSENA        CLOUDY    21   7  54 E17       29.92F WCI   7
SARANAC LAKE   FLURRIES  29  19  66 E6        29.74F WCI  23
PLATTSBURGH    CLOUDY    24   8  50 N10       29.92F WCI  14
$$

NYZ001>004-010>016-019>021-081800-
WEST


CITY           SKY/WX    TMP DP  RH WIND       PRES   REMARKS
NIAGARA FALLS  PTSUNNY   47  28  47 E8        29.64F
BUFFALO        CLOUDY    45  26  47 SE6       29.64F
DUNKIRK        PTSUNNY   45  28  51 SE9       29.62F
JAMESTOWN      MOSUNNY   41  23  48 SE10      29.58F
WELLSVILLE     CLOUDY    38  21  50 SE8       29.63F WCI  32
ROCHESTER      CLOUDY    42  24  49 SE12      29.70F
PENN YAN       CLOUDY    39  23  52 SE9       29.71F WCI  33
$$

             KEY
       WCI = WIND CHILL INDEX
       VSB = VISIBILITY
       HX  = HEAT INDEX
$$



USA.gov is the U.S. government's official web portal to all federal, state and local government web resources and services.